EDW244Y LSZH-LEPA

Flight info

Callsign EDW244Y
Flight time N/A
Altitude 33000
Route VEBIT T50 ROTOS Z669 ULMES DCT VADAR/N0454F410 DCT GEVEA DCT INCUS DCT BALSI DCT RETNO DCT TUPOX DCT MTG DCT DIVKO DCT VATIR DCT PIVUS DCT BODEQ DCT VERSO L129 LUNIK
Aircraft A343/H-SDE2E3FGHIJ4J5M1RWXY/LB1D1

Departure

Time 2026-04-26 13:03
Airport Zürich Airport (LSZH)

Arrival

Time N/A
Airport Palma de Mallorca Airport (LEPA)
Time Latitude Longitude Altitude Speed Heading
2026-04-26 12:45 47.46033 8.55832 1410 ft 0 kts
2026-04-26 12:52 47.46027 8.55831 1409 ft 4 kts
2026-04-26 12:52 47.46004 8.55825 1411 ft 3 kts 15°
2026-04-26 12:52 47.45981 8.55814 1411 ft 3 kts 25°
2026-04-26 12:53 47.45961 8.55796 1412 ft 3 kts 42°
2026-04-26 12:53 47.45948 8.55771 1413 ft 3 kts 82°
2026-04-26 12:53 47.45947 8.55755 1412 ft 1 kts 96°
2026-04-26 12:53 47.45947 8.55754 1412 ft 0 kts 96°
2026-04-26 12:59 47.45947 8.55758 1412 ft 4 kts 96°
2026-04-26 12:59 47.45940 8.55859 1409 ft 12 kts 96°
2026-04-26 12:59 47.45904 8.55929 1413 ft 10 kts 159°
2026-04-26 12:59 47.45837 8.56032 1407 ft 19 kts 107°
2026-04-26 13:00 47.45828 8.56178 1409 ft 13 kts 97°
2026-04-26 13:00 47.45822 8.56257 1410 ft 0 kts 96°
2026-04-26 13:00 47.45817 8.56321 1410 ft 15 kts 97°
2026-04-26 13:00 47.45803 8.56515 1407 ft 19 kts 96°
2026-04-26 13:01 47.45787 8.56742 1407 ft 21 kts 96°
2026-04-26 13:01 47.45775 8.56921 1405 ft 13 kts 96°
2026-04-26 13:01 47.45754 8.57002 1408 ft 7 kts 133°
2026-04-26 13:01 47.45686 8.57025 1408 ft 13 kts 202°
2026-04-26 13:02 47.45666 8.56925 1406 ft 12 kts 274°
2026-04-26 13:02 47.45689 8.56602 1404 ft 65 kts 276°
2026-04-26 13:02 47.45762 8.55569 1408 ft 135 kts 276°
2026-04-26 13:02 47.45859 8.53939 1648 ft 170 kts 274°
2026-04-26 13:03 47.45841 8.52230 2552 ft 166 kts 270°
2026-04-26 13:03 47.45604 8.50473 3090 ft 184 kts 259°
2026-04-26 13:03 47.45297 8.48489 3494 ft 211 kts 259°
2026-04-26 13:03 47.44639 8.46432 4069 ft 233 kts 237°
2026-04-26 13:04 47.43656 8.44360 4632 ft 260 kts 234°
2026-04-26 13:04 47.42565 8.42133 5314 ft 272 kts 234°
2026-04-26 13:04 47.41462 8.39854 6452 ft 272 kts 233°
2026-04-26 13:04 47.40371 8.37566 7591 ft 273 kts 234°
2026-04-26 13:05 47.39285 8.35258 8595 ft 276 kts 236°
2026-04-26 13:05 47.38310 8.32796 9610 ft 279 kts 242°
2026-04-26 13:05 47.37407 8.30274 10476 ft 286 kts 243°
2026-04-26 13:05 47.36458 8.27584 10949 ft 306 kts 243°
2026-04-26 13:06 47.35442 8.24712 11413 ft 324 kts 243°
2026-04-26 13:06 47.34392 8.21739 12117 ft 331 kts 243°
2026-04-26 13:06 47.33314 8.18705 12900 ft 336 kts 244°
2026-04-26 13:06 47.32219 8.15625 13695 ft 341 kts 244°
2026-04-26 13:07 47.31112 8.12522 14523 ft 344 kts 243°
2026-04-26 13:07 47.30001 8.09398 15333 ft 346 kts 244°
2026-04-26 13:07 47.28879 8.06242 16102 ft 350 kts 244°
2026-04-26 13:07 47.27758 8.03096 16820 ft 354 kts 243°
2026-04-26 13:08 47.26653 7.99839 17595 ft 357 kts 246°
2026-04-26 13:08 47.25642 7.96490 18383 ft 359 kts 248°
2026-04-26 13:08 47.24677 7.93079 19035 ft 363 kts 249°
2026-04-26 13:08 47.23728 7.89621 19687 ft 367 kts 249°
2026-04-26 13:09 47.22773 7.86120 20336 ft 370 kts 249°
2026-04-26 13:09 47.21805 7.82591 21004 ft 373 kts 249°
2026-04-26 13:09 47.20821 7.79038 21638 ft 376 kts 249°
2026-04-26 13:09 47.19818 7.75518 22198 ft 380 kts 246°
2026-04-26 13:10 47.18547 7.72085 22808 ft 386 kts 238°
2026-04-26 13:10 47.17016 7.68828 23116 ft 389 kts 236°
2026-04-26 13:10 47.15390 7.65655 23169 ft 389 kts 234°
2026-04-26 13:10 47.13716 7.62536 23212 ft 390 kts 233°
2026-04-26 13:11 47.12005 7.59418 23597 ft 394 kts 233°
2026-04-26 13:11 47.10282 7.56291 24177 ft 395 kts 233°
2026-04-26 13:11 47.09137 7.54208 24533 ft 396 kts 233°